TimeCST,TemperatureF,Dew PointF,Humidity,Sea Level PressureIn,VisibilityMPH,Wind Direction,Wind SpeedMPH,Gust SpeedMPH,PrecipitationIn,Events,Conditions,WindDirDegrees,DateUTC
12:15 AM,24.8,23.0,93,30.23,10.0,South,6.9,-,N/A,,Clear,180,2013-12-26 06:15:00
12:35 AM,24.8,21.2,86,30.21,10.0,South,8.1,-,N/A,,Clear,190,2013-12-26 06:35:00
12:55 AM,26.6,23.0,86,30.21,10.0,SW,10.4,-,N/A,,Clear,220,2013-12-26 06:55:00
1:15 AM,28.4,23.0,80,30.19,10.0,SSW,10.4,-,N/A,,Clear,210,2013-12-26 07:15:00
1:35 AM,28.4,23.0,80,30.19,10.0,SSW,8.1,-,N/A,,Clear,200,2013-12-26 07:35:00
1:55 AM,26.6,23.0,86,30.18,10.0,SSW,10.4,-,N/A,,Clear,200,2013-12-26 07:55:00
2:15 AM,26.6,23.0,86,30.18,10.0,SW,12.7,-,N/A,,Clear,220,2013-12-26 08:15:00
2:35 AM,26.6,23.0,86,30.18,10.0,SSW,12.7,-,N/A,,Clear,210,2013-12-26 08:35:00
2:55 AM,26.6,23.0,86,30.18,10.0,SSW,11.5,-,N/A,,Clear,210,2013-12-26 08:55:00
3:15 AM,26.6,21.2,80,30.18,10.0,SSW,10.4,-,N/A,,Clear,210,2013-12-26 09:15:00
3:35 AM,26.6,21.2,80,30.18,10.0,SSW,8.1,15.0,N/A,,Clear,210,2013-12-26 09:35:00
3:55 AM,26.6,21.2,80,30.17,10.0,SSW,9.2,-,N/A,,Clear,200,2013-12-26 09:55:00
4:15 AM,26.6,21.2,80,30.15,10.0,SSW,9.2,-,N/A,,Clear,200,2013-12-26 10:15:00
4:35 AM,26.6,21.2,80,30.14,10.0,SSW,9.2,16.1,N/A,,Clear,200,2013-12-26 10:35:00
4:55 AM,26.6,21.2,80,30.13,10.0,SSW,11.5,17.3,N/A,,Clear,210,2013-12-26 10:55:00
5:15 AM,26.6,21.2,80,30.13,10.0,SSW,9.2,-,N/A,,Clear,210,2013-12-26 11:15:00
5:35 AM,26.6,21.2,80,30.12,10.0,SSW,9.2,-,N/A,,Clear,200,2013-12-26 11:35:00
5:55 AM,26.6,21.2,80,30.12,10.0,SSW,10.4,-,N/A,,Clear,200,2013-12-26 11:55:00
6:15 AM,26.6,21.2,80,30.12,10.0,SSW,11.5,-,N/A,,Clear,200,2013-12-26 12:15:00
6:35 AM,26.6,21.2,80,30.10,10.0,SSW,10.4,-,N/A,,Clear,200,2013-12-26 12:35:00
6:55 AM,26.6,23.0,86,30.10,10.0,SSW,11.5,-,N/A,,Clear,200,2013-12-26 12:55:00
7:15 AM,28.4,23.0,80,30.10,10.0,SSW,12.7,-,N/A,,Clear,210,2013-12-26 13:15:00
7:35 AM,28.4,23.0,80,30.10,10.0,SSW,13.8,20.7,N/A,,Clear,210,2013-12-26 13:35:00
7:55 AM,28.4,23.0,80,30.09,10.0,SSW,12.7,-,N/A,,Clear,210,2013-12-26 13:55:00
8:15 AM,28.4,23.0,80,30.09,10.0,SSW,12.7,-,N/A,,Clear,210,2013-12-26 14:15:00
8:35 AM,28.4,23.0,80,30.09,10.0,SSW,10.4,-,N/A,,Clear,210,2013-12-26 14:35:00
8:55 AM,28.4,23.0,80,30.11,10.0,WSW,5.8,11.5,N/A,,Clear,240,2013-12-26 14:55:00
9:15 AM,28.4,23.0,80,30.10,10.0,SSW,9.2,-,N/A,,Clear,210,2013-12-26 15:15:00
9:35 AM,28.4,23.0,80,30.11,10.0,SSW,8.1,-,N/A,,Clear,210,2013-12-26 15:35:00
9:55 AM,30.2,24.8,80,30.12,10.0,WSW,6.9,-,N/A,,Mostly Cloudy,240,2013-12-26 15:55:00
10:15 AM,32.0,24.8,75,30.12,10.0,WSW,9.2,-,N/A,,Overcast,250,2013-12-26 16:15:00
10:35 AM,33.8,24.8,70,30.11,10.0,WSW,6.9,-,N/A,,Mostly Cloudy,250,2013-12-26 16:35:00
10:55 AM,33.8,23.0,65,30.12,10.0,West,5.8,12.7,N/A,,Partly Cloudy,260,2013-12-26 16:55:00
11:15 AM,33.8,24.8,70,30.12,10.0,SW,6.9,-,N/A,,Clear,220,2013-12-26 17:15:00
11:35 AM,33.8,24.8,70,30.11,10.0,WSW,5.8,-,N/A,,Partly Cloudy,250,2013-12-26 17:35:00
11:55 AM,37.4,24.8,60,30.11,10.0,Calm,Calm,-,N/A,,Clear,0,2013-12-26 17:55:00
12:15 PM,37.4,23.0,56,30.10,10.0,SW,9.2,-,N/A,,Clear,220,2013-12-26 18:15:00
12:35 PM,39.2,24.8,56,30.10,10.0,WSW,9.2,16.1,N/A,,Clear,250,2013-12-26 18:35:00
12:55 PM,39.2,24.8,56,30.10,10.0,SW,9.2,-,N/A,,Clear,220,2013-12-26 18:55:00
1:15 PM,39.2,24.8,56,30.09,10.0,WSW,9.2,-,N/A,,Clear,240,2013-12-26 19:15:00
1:35 PM,41.0,24.8,53,30.09,10.0,SW,8.1,-,N/A,,Clear,220,2013-12-26 19:35:00
1:55 PM,41.0,23.0,49,30.09,10.0,WSW,8.1,-,N/A,,Clear,250,2013-12-26 19:55:00
2:15 PM,42.8,24.8,49,30.09,10.0,WSW,8.1,-,N/A,,Clear,250,2013-12-26 20:15:00
2:35 PM,42.8,24.8,49,30.09,10.0,WSW,8.1,-,N/A,,Clear,240,2013-12-26 20:35:00
2:55 PM,44.6,24.8,46,30.09,10.0,SW,8.1,-,N/A,,Clear,230,2013-12-26 20:55:00
3:15 PM,44.6,24.8,46,30.10,10.0,SW,9.2,-,N/A,,Clear,230,2013-12-26 21:15:00
3:35 PM,44.6,24.8,46,30.11,10.0,WSW,8.1,-,N/A,,Clear,250,2013-12-26 21:35:00
3:55 PM,44.6,24.8,46,30.12,10.0,SW,6.9,-,N/A,,Clear,230,2013-12-26 21:55:00
4:15 PM,44.6,24.8,46,30.13,10.0,WSW,5.8,-,N/A,,Clear,250,2013-12-26 22:15:00
4:35 PM,42.8,23.0,46,30.14,10.0,WSW,6.9,-,N/A,,Clear,240,2013-12-26 22:35:00
4:55 PM,41.0,23.0,49,30.14,10.0,WSW,5.8,-,N/A,,Clear,240,2013-12-26 22:55:00
5:15 PM,42.8,23.0,46,30.14,10.0,SW,5.8,-,N/A,,Clear,220,2013-12-26 23:15:00
5:35 PM,41.0,23.0,49,30.15,10.0,SSW,4.6,-,N/A,,Clear,200,2013-12-26 23:35:00
5:55 PM,39.2,23.0,52,30.15,10.0,SSW,9.2,-,N/A,,Clear,210,2013-12-26 23:55:00
6:15 PM,41.0,23.0,49,30.15,10.0,SSW,8.1,-,N/A,,Clear,210,2013-12-27 00:15:00
6:35 PM,39.2,23.0,52,30.16,10.0,SW,8.1,-,N/A,,Clear,220,2013-12-27 00:35:00
6:55 PM,39.2,23.0,52,30.16,10.0,SW,8.1,-,N/A,,Clear,220,2013-12-27 00:55:00
7:15 PM,39.2,23.0,52,30.16,10.0,SW,8.1,-,N/A,,Clear,220,2013-12-27 01:15:00
7:35 PM,37.4,23.0,56,30.17,10.0,WSW,6.9,-,N/A,,Clear,240,2013-12-27 01:35:00
7:55 PM,37.4,23.0,56,30.17,10.0,WSW,5.8,-,N/A,,Clear,250,2013-12-27 01:55:00
8:15 PM,37.4,23.0,56,30.18,10.0,West,5.8,-,N/A,,Clear,270,2013-12-27 02:15:00
8:35 PM,39.2,23.0,52,30.18,10.0,WNW,5.8,-,N/A,,Clear,290,2013-12-27 02:35:00
8:55 PM,39.2,21.2,49,30.19,10.0,NW,5.8,-,N/A,,Clear,310,2013-12-27 02:55:00
9:15 PM,37.4,21.2,52,30.19,10.0,WNW,4.6,-,N/A,,Clear,300,2013-12-27 03:15:00
9:35 PM,37.4,21.2,52,30.20,10.0,NW,5.8,-,N/A,,Clear,320,2013-12-27 03:35:00
9:55 PM,37.4,23.0,56,30.20,10.0,NW,8.1,-,N/A,,Clear,320,2013-12-27 03:55:00
10:15 PM,37.4,23.0,56,30.20,10.0,NNW,8.1,-,N/A,,Clear,330,2013-12-27 04:15:00
10:35 PM,35.6,23.0,60,30.21,10.0,NW,4.6,-,N/A,,Clear,320,2013-12-27 04:35:00
10:55 PM,30.2,21.2,69,30.22,10.0,Calm,Calm,-,N/A,,Clear,0,2013-12-27 04:55:00
11:15 PM,35.6,23.0,60,30.22,10.0,SW,5.8,-,N/A,,Clear,230,2013-12-27 05:15:00
11:35 PM,33.8,23.0,65,30.23,10.0,WSW,4.6,-,N/A,,Clear,250,2013-12-27 05:35:00
11:55 PM,35.6,23.0,60,30.23,10.0,WSW,4.6,-,N/A,,Clear,250,2013-12-27 05:55:00